• In Uzbekistan
  • List of Countries
  • For 7 days
  • Water Temperature
  • Satellite Maps
  • Weather Map
  • Weather Widgets
  • user-avatar
    Login

    Hourly Weather Lezhe

    Today, 17 November, Friday

    Time Temperature Precipitation Wind Pressure Humidity
    00:00 +10°C° 0 mm 4 mps 737 mmHg 83%
    01:00 +10°C° 0 mm 4 mps 736 mmHg 83%
    02:00 +10°C° 0 mm 4 mps 736 mmHg 83%
    03:00 +10°C° 0 mm 4 mps 736 mmHg 84%
    04:00 +10°C° 0 mm 4 mps 736 mmHg 84%
    05:00 +10°C° 0.2 mm 4 mps 736 mmHg 84%
    06:00 +10°C° 0.2 mm 4 mps 736 mmHg 85%
    07:00 +10°C° 0 mm 4 mps 735 mmHg 85%
    08:00 +11°C° 0.3 mm 4 mps 736 mmHg 83%
    09:00 +12°C° 0.3 mm 4 mps 736 mmHg 81%
    10:00 +12°C° 0.3 mm 4 mps 736 mmHg 79%
    11:00 +13°C° 0.2 mm 4 mps 735 mmHg 77%
    12:00 +13°C° 0.2 mm 4 mps 735 mmHg 75%
    13:00 +13°C° 0 mm 4 mps 735 mmHg 74%
    14:00 +13°C° 0.1 mm 4 mps 735 mmHg 76%
    15:00 +12°C° 0.1 mm 4 mps 735 mmHg 78%
    16:00 +12°C° 0.1 mm 3 mps 735 mmHg 80%
    17:00 +11°C° 0.1 mm 3 mps 735 mmHg 81%
    18:00 +11°C° 0.1 mm 3 mps 735 mmHg 82%
    19:00 +10°C° 0.1 mm 3 mps 735 mmHg 83%
    20:00 +10°C° 0.1 mm 3 mps 735 mmHg 83%
    21:00 +10°C° 0.1 mm 3 mps 735 mmHg 83%
    22:00 +10°C° 0.1 mm 3 mps 735 mmHg 83%
    23:00 +9°C° 0.1 mm 3 mps 735 mmHg 83%

    Tomorrow, 18 November, Saturday

    Time Temperature Precipitation Wind Pressure Humidity
    00:00 +9°C° 0.1 mm 3 mps 735 mmHg 84%
    01:00 +9°C° 0.1 mm 3 mps 735 mmHg 84%
    02:00 +9°C° 0.1 mm 3 mps 735 mmHg 84%
    03:00 +9°C° 0.1 mm 3 mps 735 mmHg 84%
    04:00 +8°C° 0.1 mm 3 mps 735 mmHg 85%
    05:00 +8°C° 0 mm 3 mps 735 mmHg 85%
    06:00 +8°C° 0 mm 3 mps 735 mmHg 84%
    07:00 +8°C° 0 mm 3 mps 735 mmHg 84%
    08:00 +10°C° 0 mm 3 mps 735 mmHg 79%
    09:00 +11°C° 0 mm 3 mps 735 mmHg 75%
    10:00 +14°C° 0 mm 2 mps 735 mmHg 70%
    11:00 +14°C° 0 mm 2 mps 735 mmHg 67%
    12:00 +15°C° 0 mm 2 mps 735 mmHg 65%
    13:00 +15°C° 0 mm 2 mps 735 mmHg 63%
    14:00 +15°C° 0.1 mm 2 mps 735 mmHg 67%
    15:00 +14°C° 0.1 mm 2 mps 735 mmHg 71%
    16:00 +13°C° 0.1 mm 2 mps 735 mmHg 74%
    17:00 +12°C° 0 mm 2 mps 735 mmHg 76%
    18:00 +12°C° 0 mm 2 mps 735 mmHg 78%
    19:00 +10°C° 0 mm 2 mps 735 mmHg 80%
    20:00 +10°C° 0 mm 2 mps 735 mmHg 81%
    21:00 +9°C° 0 mm 2 mps 735 mmHg 82%
    22:00 +9°C° 0 mm 2 mps 735 mmHg 83%
    23:00 +9°C° 0 mm 2 mps 735 mmHg 83%

    Day after tomorrow, 19 November, Sunday

    Time Temperature Precipitation Wind Pressure Humidity
    00:00 +9°C° 0 mm 2 mps 735 mmHg 83%
    01:00 +9°C° 0 mm 2 mps 735 mmHg 83%
    02:00 +9°C° 0 mm 2 mps 735 mmHg 84%
    03:00 +8°C° 0 mm 2 mps 735 mmHg 84%
    04:00 +8°C° 0 mm 2 mps 735 mmHg 84%
    05:00 +8°C° 0 mm 2 mps 735 mmHg 84%
    06:00 +8°C° 0 mm 2 mps 735 mmHg 84%
    07:00 +8°C° 0 mm 2 mps 735 mmHg 84%
    08:00 +9°C° 0 mm 2 mps 735 mmHg 79%
    09:00 +10°C° 0 mm 2 mps 735 mmHg 74%
    10:00 +12°C° 0 mm 2 mps 735 mmHg 69%
    11:00 +13°C° 0 mm 1 mps 735 mmHg 67%
    12:00 +13°C° 0 mm 1 mps 734 mmHg 65%
    13:00 +13°C° 0 mm 1 mps 734 mmHg 63%
    14:00 +13°C° 0 mm 1 mps 734 mmHg 66%
    15:00 +12°C° 0 mm 1 mps 734 mmHg 69%
    16:00 +12°C° 0 mm 1 mps 734 mmHg 73%
    17:00 +11°C° 0.1 mm 1 mps 734 mmHg 74%
    18:00 +11°C° 0.1 mm 1 mps 734 mmHg 75%
    19:00 +10°C° 0.1 mm 1 mps 734 mmHg 77%
    20:00 +10°C° 0.5 mm 1 mps 734 mmHg 79%
    21:00 +9°C° 0.5 mm 2 mps 734 mmHg 81%
    22:00 +8°C° 0.5 mm 2 mps 735 mmHg 84%
    23:00 +8°C° 0.8 mm 2 mps 735 mmHg 85%

    20 November, Monday

    Time Temperature Precipitation Wind Pressure Humidity
    00:00 +7°C° 0.8 mm 3 mps 735 mmHg 87%
    01:00 +7°C° 0.8 mm 3 mps 735 mmHg 88%
    02:00 +5°C° 0.7 mm 4 mps 735 mmHg 86%
    03:00 +5°C° 0.7 mm 4 mps 735 mmHg 84%
    04:00 +3°C° 0.7 mm 5 mps 735 mmHg 81%
    05:00 +3°C° 0.1 mm 5 mps 736 mmHg 81%
    06:00 +3°C° 0.1 mm 5 mps 736 mmHg 80%
    07:00 +3°C° 0.1 mm 5 mps 737 mmHg 79%
    08:00 +5°C° 0 mm 5 mps 738 mmHg 74%
    09:00 +6°C° 0 mm 5 mps 738 mmHg 70%
    10:00 +6°C° 0 mm 5 mps 739 mmHg 65%
    11:00 +7°C° 0 mm 4 mps 739 mmHg 62%
    12:00 +7°C° 0 mm 4 mps 739 mmHg 59%
    13:00 +7°C° 0 mm 4 mps 739 mmHg 57%
    14:00 +6°C° 0 mm 4 mps 739 mmHg 60%
    15:00 +7°C° 0 mm 3 mps 740 mmHg 63%
    16:00 +5°C° 0 mm 3 mps 740 mmHg 66%
    17:00 +4°C° 0 mm 3 mps 740 mmHg 67%
    18:00 +3°C° 0 mm 3 mps 741 mmHg 68%
    19:00 +2°C° 0 mm 3 mps 741 mmHg 69%
    20:00 +2°C° 0 mm 3 mps 742 mmHg 68%
    21:00 +2°C° 0 mm 3 mps 742 mmHg 67%
    22:00 +3°C° 0 mm 2 mps 742 mmHg 66%
    23:00 +3°C° 0 mm 2 mps 742 mmHg 64%

    21 November, Tuesday

    Time Temperature Precipitation Wind Pressure Humidity
    00:00 +3°C° 0 mm 2 mps 742 mmHg 62%
    01:00 +3°C° 0 mm 2 mps 742 mmHg 61%
    02:00 +3°C° 0 mm 2 mps 742 mmHg 59%
    03:00 +3°C° 0 mm 2 mps 741 mmHg 58%
    04:00 +3°C° 0 mm 2 mps 741 mmHg 56%
    05:00 +5°C° 0 mm 1 mps 741 mmHg 56%
    06:00 +5°C° 0 mm 1 mps 741 mmHg 55%
    07:00 +5°C° 0 mm 1 mps 741 mmHg 54%
    08:00 +7°C° 0 mm 1 mps 741 mmHg 51%
    09:00 +8°C° 0 mm 1 mps 741 mmHg 48%
    10:00 +10°C° 0 mm 1 mps 741 mmHg 45%
    11:00 +10°C° 0 mm 1 mps 741 mmHg 46%
    12:00 +11°C° 0 mm 1 mps 740 mmHg 47%
    13:00 +11°C° 0 mm 1 mps 740 mmHg 49%
    14:00 +10°C° 0 mm 1 mps 740 mmHg 54%
    15:00 +9°C° 0 mm 1 mps 740 mmHg 59%
    16:00 +8°C° 0 mm 1 mps 740 mmHg 64%
    17:00 +7°C° 0 mm 1 mps 740 mmHg 65%
    18:00 +7°C° 0 mm 1 mps 740 mmHg 66%
    19:00 +6°C° 0 mm 1 mps 741 mmHg 67%
    20:00 +6°C° 0 mm 1 mps 741 mmHg 66%
    21:00 +6°C° 0 mm 1 mps 741 mmHg 66%
    22:00 +6°C° 0 mm 1 mps 741 mmHg 66%
    23:00 +6°C° 0 mm 1 mps 741 mmHg 65%

    22 November, Wednesday

    Time Temperature Precipitation Wind Pressure Humidity
    00:00 +6°C° 0 mm 1 mps 741 mmHg 64%
    01:00 +6°C° 0 mm 1 mps 741 mmHg 64%
    02:00 +6°C° 0 mm 1 mps 741 mmHg 63%
    03:00 +6°C° 0 mm 1 mps 741 mmHg 63%
    04:00 +6°C° 0 mm 1 mps 741 mmHg 62%
    05:00 +6°C° 0 mm 1 mps 741 mmHg 62%
    06:00 +6°C° 0 mm 1 mps 741 mmHg 61%
    07:00 +7°C° 0 mm 1 mps 741 mmHg 61%
    08:00 +9°C° 0 mm 1 mps 741 mmHg 57%
    09:00 +10°C° 0 mm 1 mps 741 mmHg 54%
    10:00 +11°C° 0 mm 0 mps 741 mmHg 50%
    11:00 +13°C° 0 mm 1 mps 741 mmHg 51%
    12:00 +14°C° 0 mm 1 mps 741 mmHg 51%
    13:00 +14°C° 0 mm 1 mps 741 mmHg 52%
    14:00 +13°C° 0 mm 1 mps 741 mmHg 58%
    15:00 +12°C° 0 mm 1 mps 741 mmHg 65%
    16:00 +10°C° 0 mm 1 mps 741 mmHg 71%
    17:00 +10°C° 0 mm 1 mps 741 mmHg 72%
    18:00 +10°C° 0 mm 1 mps 741 mmHg 72%
    19:00 +9°C° 0 mm 1 mps 741 mmHg 73%
    20:00 +9°C° 0 mm 1 mps 741 mmHg 72%
    21:00 +9°C° 0 mm 1 mps 742 mmHg 71%
    22:00 +9°C° 0 mm 1 mps 742 mmHg 70%
    23:00 +9°C° 0 mm 1 mps 742 mmHg 69%
    Show more